| time (UTC) | temp F | wind direction | speed knots | gust knots | rain 1hr in | rain 24hr in | rain mn in | humidity % | barometer mb |
| 20260503050337 | 37 | 266 | 0.0 | 2.6 | 0.00 | 0.00 | 0.00 | 72 | 1014.4 |
| 20260503045836 | 37 | 266 | 0.0 | 2.6 | 0.00 | 0.00 | 0.00 | 72 | 1014.5 |
| 20260503045330 | 37 | 259 | 0.0 | 1.7 | 0.00 | 0.00 | 0.00 | 72 | 1014.5 |
| 20260503045047 | 37 | 259 | 0.0 | 1.7 | 0.00 | 0.00 | 0.00 | 73 | 1014.5 |
| 20260503044537 | 37 | 254 | 0.0 | 1.7 | 0.00 | 0.00 | 0.00 | 73 | 1014.5 |
| 20260503043807 | 37 | 242 | 0.0 | 2.6 | 0.00 | 0.00 | 0.00 | 73 | 1014.5 |
| 20260503043753 | 37 | 239 | 0.0 | 2.6 | 0.00 | 0.00 | 0.00 | 73 | 1014.5 |
| 20260503042755 | 37 | 257 | 0.0 | 1.7 | 0.00 | 0.00 | 0.00 | 72 | 1014.5 |
| 20260503042507 | 37 | 257 | 0.0 | 1.7 | 0.00 | 0.00 | 0.00 | 72 | 1014.5 |
| 20260503041738 | 37 | 254 | 0.0 | 1.7 | 0.00 | 0.00 | 0.00 | 72 | 1014.5 |
| 20260503041233 | 37 | 242 | 0.0 | 1.7 | 0.00 | 0.00 | 0.00 | 72 | 1014.6 |
| 20260503040942 | 37 | 222 | 0.0 | 1.7 | 0.00 | 0.00 | 0.00 | 72 | 1014.6 |
| 20260503040220 | 37 | 222 | 0.0 | 1.7 | 0.00 | 0.00 | 0.00 | 72 | 1014.7 |
| 20260503035713 | 37 | 219 | 0.0 | 0.9 | 0.00 | 0.00 | 0.00 | 72 | 1014.7 |
| 20260503035203 | 37 | 219 | 0.0 | 1.7 | 0.00 | 0.00 | 0.00 | 72 | 1014.7 |
| 20260503034701 | 37 | 219 | 0.0 | 1.7 | 0.00 | 0.00 | 0.00 | 73 | 1014.7 |
| 20260503034155 | 37 | 219 | 0.0 | 1.7 | 0.00 | 0.00 | 0.00 | 73 | 1014.7 |
| 20260503033649 | 37 | 219 | 0.0 | 0.0 | 0.00 | 0.00 | 0.00 | 73 | 1014.7 |
| 20260503033142 | 37 | 219 | 0.0 | 0.0 | 0.00 | 0.00 | 0.00 | 73 | 1014.8 |
| 20260503032637 | 37 | 219 | 0.0 | 0.0 | 0.00 | 0.00 | 0.00 | 73 | 1014.8 |
| 20260503032131 | 37 | 219 | 0.0 | 0.0 | 0.00 | 0.00 | 0.00 | 72 | 1014.8 |
| 20260503031620 | 38 | 219 | 0.0 | 0.0 | 0.00 | 0.00 | 0.00 | 71 | 1014.8 |
| 20260503031119 | 38 | 219 | 0.0 | 0.9 | 0.00 | 0.00 | 0.00 | 70 | 1014.8 |
| 20260503030612 | 38 | 219 | 0.0 | 0.9 | 0.00 | 0.00 | 0.00 | 70 | 1014.9 |
| 20260503030107 | 38 | 219 | 0.0 | 0.0 | 0.00 | 0.00 | 0.00 | 70 | 1014.8 |
| 20260503025601 | 38 | 219 | 0.0 | 0.9 | 0.00 | 0.00 | 0.00 | 70 | 1014.9 |
| 20260503025310 | 38 | 219 | 0.0 | 0.9 | 0.00 | 0.00 | 0.00 | 70 | 1014.9 |
| 20260503024548 | 38 | 219 | 0.0 | 0.9 | 0.00 | 0.00 | 0.00 | 70 | 1015.0 |
| 20260503024043 | 38 | 219 | 0.0 | 0.0 | 0.00 | 0.00 | 0.00 | 69 | 1015.0 |
| 20260503023536 | 39 | 219 | 0.0 | 0.0 | 0.00 | 0.00 | 0.00 | 69 | 1014.9 |
| 20260503023031 | 39 | 219 | 0.0 | 0.0 | 0.00 | 0.00 | 0.00 | 68 | 1015.0 |
| 20260503022524 | 39 | 219 | 0.0 | 0.0 | 0.00 | 0.00 | 0.00 | 68 | 1015.0 |
| 20260503022018 | 39 | 219 | 0.0 | 0.0 | 0.00 | 0.00 | 0.00 | 67 | 1015.0 |
| 20260503021509 | 39 | 219 | 0.0 | 0.0 | 0.00 | 0.00 | 0.00 | 67 | 1015.0 |
| 20260503021007 | 39 | 219 | 0.0 | 0.0 | 0.00 | 0.00 | 0.00 | 67 | 1015.0 |
| 20260503020500 | 40 | 219 | 0.0 | 0.0 | 0.00 | 0.00 | 0.00 | 66 | 1014.9 |
| 20260503015955 | 40 | 219 | 0.0 | 0.0 | 0.00 | 0.00 | 0.00 | 65 | 1014.9 |
| 20260503015448 | 40 | 219 | 0.0 | 0.0 | 0.00 | 0.00 | 0.00 | 64 | 1014.9 |
| 20260503014937 | 40 | 219 | 0.0 | 0.0 | 0.00 | 0.00 | 0.00 | 63 | 1014.8 |
| 20260503014925 | 40 | 219 | 0.0 | 0.0 | 0.00 | 0.00 | 0.00 | 63 | 1014.8 |
| 20260503014148 | 41 | 219 | 0.0 | 0.0 | 0.00 | 0.00 | 0.00 | 62 | 1014.8 |
| 20260503013424 | 41 | 219 | 0.0 | 0.0 | 0.00 | 0.00 | 0.00 | 62 | 1014.8 |
| 20260503012919 | 41 | 219 | 0.0 | 0.0 | 0.00 | 0.00 | 0.00 | 62 | 1014.7 |
| 20260503012409 | 42 | 219 | 0.0 | 0.0 | 0.00 | 0.00 | 0.00 | 62 | 1014.8 |
| 20260503011906 | 42 | 219 | 0.0 | 0.0 | 0.00 | 0.00 | 0.00 | 62 | 1014.7 |
| 20260503011401 | 42 | 219 | 0.0 | 0.0 | 0.00 | 0.00 | 0.00 | 62 | 1014.7 |
| 20260503010854 | 43 | 219 | 0.0 | 0.9 | 0.00 | 0.00 | 0.00 | 58 | 1014.6 |
| 20260503010349 | 43 | 219 | 0.0 | 1.7 | 0.00 | 0.00 | 0.00 | 58 | 1014.6 |
| 20260503005842 | 43 | 219 | 0.0 | 1.7 | 0.00 | 0.00 | 0.00 | 58 | 1014.6 |
| 20260503005337 | 44 | 200 | 0.0 | 0.0 | 0.00 | 0.00 | 0.00 | 57 | 1014.6 |
| 20260503004826 | 44 | 200 | 0.0 | 0.0 | 0.00 | 0.00 | 0.00 | 57 | 1014.5 |
| 20260503004324 | 45 | 200 | 0.0 | 0.0 | 0.00 | 0.00 | 0.00 | 57 | 1014.6 |
| 20260503003819 | 45 | 200 | 0.0 | 1.7 | 0.00 | 0.00 | 0.00 | 56 | 1014.6 |
| 20260503003312 | 46 | 200 | 0.9 | 1.7 | 0.00 | 0.00 | 0.00 | 54 | 1014.5 |
| 20260503002807 | 46 | 200 | 0.9 | 1.7 | 0.00 | 0.00 | 0.00 | 54 | 1014.6 |
| 20260503002256 | 46 | 200 | 0.0 | 3.5 | 0.00 | 0.00 | 0.00 | 54 | 1014.6 |
| 20260503001755 | 47 | 200 | 0.0 | 3.5 | 0.00 | 0.00 | 0.00 | 53 | 1014.5 |
| 20260503001248 | 47 | 249 | 0.0 | 2.6 | 0.00 | 0.00 | 0.00 | 53 | 1014.5 |
| 20260503000958 | 47 | 249 | 0.9 | 2.6 | 0.00 | 0.00 | 0.00 | 52 | 1014.5 |
| 20260503000457 | 47 | 224 | 1.7 | 3.5 | 0.00 | 0.00 | 0.00 | 52 | 1014.5 |
| 20260502235952 | 47 | 284 | 1.7 | 4.3 | 0.00 | 0.00 | 0.00 | 51 | 1014.5 |
| 20260502235224 | 48 | 267 | 2.6 | 5.2 | 0.00 | 0.00 | 0.00 | 50 | 1014.5 |
| 20260502234714 | 48 | 287 | 2.6 | 7.0 | 0.00 | 0.00 | 0.00 | 48 | 1014.5 |
| 20260502234212 | 48 | 280 | 2.6 | 7.0 | 0.00 | 0.00 | 0.00 | 48 | 1014.5 |
| 20260502233707 | 48 | 248 | 1.7 | 6.1 | 0.00 | 0.00 | 0.00 | 49 | 1014.5 |
| 20260502233200 | 48 | 271 | 1.7 | 4.3 | 0.00 | 0.00 | 0.00 | 49 | 1014.6 |
| 20260502232654 | 48 | 279 | 2.6 | 5.2 | 0.00 | 0.00 | 0.00 | 48 | 1014.6 |
| 20260502232145 | 49 | 299 | 2.6 | 8.7 | 0.00 | 0.00 | 0.00 | 47 | 1014.7 |
| 20260502231642 | 49 | 294 | 2.6 | 8.7 | 0.00 | 0.00 | 0.00 | 47 | 1014.6 |
| 20260502231132 | 48 | 288 | 3.5 | 7.0 | 0.00 | 0.00 | 0.00 | 47 | 1014.6 |
| 20260502230630 | 48 | 242 | 3.5 | 8.7 | 0.00 | 0.00 | 0.00 | 47 | 1014.6 |
| 20260502230353 | 48 | 192 | 4.3 | 8.7 | 0.00 | 0.00 | 0.00 | 47 | 1014.7 |
| 20260502225619 | 48 | 267 | 2.6 | 7.8 | 0.00 | 0.00 | 0.00 | 47 | 1014.7 |
| 20260502225113 | 48 | 259 | 2.6 | 6.1 | 0.00 | 0.00 | 0.00 | 48 | 1014.7 |
| 20260502224819 | 48 | 300 | 2.6 | 6.1 | 0.00 | 0.00 | 0.00 | 47 | 1014.7 |
| 20260502224100 | 48 | 244 | 2.6 | 8.7 | 0.00 | 0.00 | 0.00 | 47 | 1014.7 |
| 20260502223554 | 48 | 291 | 2.6 | 8.7 | 0.00 | 0.00 | 0.00 | 47 | 1014.8 |
| 20260502223316 | 48 | 319 | 1.7 | 4.3 | 0.00 | 0.00 | 0.00 | 47 | 1014.7 |
| 20260502222542 | 48 | 288 | 2.6 | 7.0 | 0.00 | 0.00 | 0.00 | 46 | 1014.7 |
| 20260502222032 | 48 | 334 | 3.5 | 7.0 | 0.00 | 0.00 | 0.00 | 46 | 1014.7 |
| 20260502221753 | 48 | 281 | 3.5 | 7.0 | 0.00 | 0.00 | 0.00 | 46 | 1014.7 |
| 20260502221024 | 48 | 295 | 2.6 | 7.0 | 0.00 | 0.00 | 0.00 | 47 | 1014.8 |
| 20260502220518 | 49 | 292 | 2.6 | 7.0 | 0.00 | 0.00 | 0.00 | 45 | 1014.7 |
| 20260502220233 | 49 | 278 | 2.6 | 5.2 | 0.00 | 0.00 | 0.00 | 46 | 1014.6 |
| 20260502215507 | 49 | 285 | 3.5 | 7.8 | 0.00 | 0.00 | 0.00 | 47 | 1014.7 |
| 20260502215001 | 48 | 270 | 3.5 | 7.8 | 0.00 | 0.00 | 0.00 | 47 | 1014.6 |
| 20260502214710 | 48 | 299 | 2.6 | 6.1 | 0.00 | 0.00 | 0.00 | 47 | 1014.7 |
| 20260502213948 | 48 | 244 | 2.6 | 6.1 | 0.00 | 0.00 | 0.00 | 47 | 1014.8 |
| 20260502213702 | 48 | 257 | 3.5 | 7.8 | 0.00 | 0.00 | 0.00 | 46 | 1014.7 |
| 20260502212937 | 48 | 273 | 4.3 | 9.6 | 0.00 | 0.00 | 0.00 | 46 | 1014.7 |
| 20260502212430 | 48 | 292 | 3.5 | 9.6 | 0.00 | 0.00 | 0.00 | 45 | 1014.7 |
| 20260502211920 | 49 | 269 | 3.5 | 7.0 | 0.00 | 0.00 | 0.00 | 47 | 1014.7 |
| 20260502211419 | 49 | 215 | 3.5 | 8.7 | 0.00 | 0.00 | 0.00 | 44 | 1014.7 |
| 20260502210913 | 49 | 304 | 3.5 | 8.7 | 0.00 | 0.00 | 0.00 | 44 | 1014.8 |
| 20260502210406 | 49 | 263 | 3.5 | 7.0 | 0.00 | 0.00 | 0.00 | 45 | 1014.9 |
| 20260502205900 | 48 | 279 | 5.2 | 12.2 | 0.00 | 0.00 | 0.00 | 46 | 1014.9 |
| 20260502205355 | 48 | 289 | 4.3 | 12.2 | 0.00 | 0.00 | 0.00 | 45 | 1015.0 |
| 20260502204848 | 48 | 180 | 3.5 | 9.6 | 0.00 | 0.00 | 0.00 | 47 | 1015.0 |
| 20260502204559 | 48 | 296 | 4.3 | 9.6 | 0.00 | 0.00 | 0.00 | 45 | 1015.0 |
| 20260502203836 | 48 | 277 | 4.3 | 7.8 | 0.00 | 0.00 | 0.00 | 46 | 1015.0 |
| 20260502203331 | 48 | 271 | 4.3 | 9.6 | 0.00 | 0.00 | 0.00 | 45 | 1015.1 |
| 20260502202824 | 48 | 288 | 4.3 | 9.6 | 0.00 | 0.00 | 0.00 | 45 | 1015.1 |
| 20260502202541 | 48 | 229 | 3.5 | 8.7 | 0.00 | 0.00 | 0.00 | 45 | 1015.1 |
| 20260502201808 | 48 | 230 | 4.3 | 8.7 | 0.00 | 0.00 | 0.00 | 45 | 1015.1 |
| 20260502201306 | 48 | 275 | 3.5 | 12.2 | 0.00 | 0.00 | 0.00 | 44 | 1015.2 |
| 20260502200800 | 48 | 262 | 2.6 | 12.2 | 0.00 | 0.00 | 0.00 | 45 | 1015.3 |
| 20260502200255 | 48 | 275 | 3.5 | 7.8 | 0.00 | 0.00 | 0.00 | 46 | 1015.3 |
| 20260502195748 | 48 | 251 | 2.6 | 7.0 | 0.00 | 0.00 | 0.00 | 47 | 1015.3 |
| 20260502195238 | 48 | 281 | 2.6 | 8.7 | 0.00 | 0.00 | 0.00 | 45 | 1015.3 |
| 20260502194737 | 47 | 300 | 3.5 | 8.7 | 0.00 | 0.00 | 0.00 | 45 | 1015.4 |
| 20260502194230 | 48 | 242 | 4.3 | 8.7 | 0.00 | 0.00 | 0.00 | 46 | 1015.4 |
| 20260502193724 | 48 | 267 | 3.5 | 8.7 | 0.00 | 0.00 | 0.00 | 45 | 1015.5 |
| 20260502193713 | 48 | 284 | 3.5 | 7.0 | 0.00 | 0.00 | 0.00 | 44 | 1015.5 |
| 20260502192713 | 48 | 316 | 4.3 | 7.8 | 0.00 | 0.00 | 0.00 | 44 | 1015.6 |
| 20260502192206 | 48 | 300 | 3.5 | 7.8 | 0.00 | 0.00 | 0.00 | 43 | 1015.6 |
| 20260502191656 | 48 | 271 | 2.6 | 8.7 | 0.00 | 0.00 | 0.00 | 43 | 1015.6 |
| 20260502191154 | 48 | 267 | 3.5 | 8.7 | 0.00 | 0.00 | 0.00 | 44 | 1015.7 |
| 20260502190649 | 48 | 297 | 3.5 | 8.7 | 0.00 | 0.00 | 0.00 | 43 | 1015.8 |
| 20260502190409 | 48 | 268 | 3.5 | 10.4 | 0.00 | 0.00 | 0.00 | 45 | 1015.8 |
| 20260502185636 | 48 | 304 | 2.6 | 10.4 | 0.00 | 0.00 | 0.00 | 43 | 1015.7 |
| 20260502185127 | 48 | 355 | 3.5 | 7.0 | 0.00 | 0.00 | 0.00 | 43 | 1015.8 |
| 20260502184625 | 48 | 174 | 3.5 | 7.0 | 0.00 | 0.00 | 0.00 | 43 | 1015.7 |
| 20260502184119 | 48 | 198 | 4.3 | 7.8 | 0.00 | 0.00 | 0.00 | 45 | 1015.8 |
| 20260502183612 | 48 | 251 | 4.3 | 8.7 | 0.00 | 0.00 | 0.00 | 44 | 1016.0 |
| 20260502183326 | 48 | 336 | 3.5 | 9.6 | 0.00 | 0.00 | 0.00 | 43 | 1015.8 |
| 20260502182600 | 48 | 288 | 5.2 | 11.3 | 0.00 | 0.00 | 0.00 | 43 | 1016.0 |
| 20260502182055 | 48 | 333 | 5.2 | 11.3 | 0.00 | 0.00 | 0.00 | 43 | 1016.1 |
| 20260502181544 | 48 | 254 | 3.5 | 11.3 | 0.00 | 0.00 | 0.00 | 45 | 1016.0 |
| 20260502181303 | 48 | 233 | 3.5 | 9.6 | 0.00 | 0.00 | 0.00 | 43 | 1016.0 |
| 20260502180754 | 47 | 298 | 4.3 | 10.4 | 0.00 | 0.00 | 0.00 | 43 | 1016.1 |
| 20260502170424 | 46 | 289 | 3.5 | 9.6 | 0.00 | 0.00 | 0.00 | 46 | 1016.6 |
| 20260502163855 | 46 | 284 | 3.5 | 8.7 | 0.00 | 0.00 | 0.00 | 47 | 1016.8 |
| 20260502163349 | 46 | 290 | 2.6 | 8.7 | 0.00 | 0.00 | 0.00 | 48 | 1016.8 |
| 20260502162842 | 46 | 238 | 2.6 | 6.1 | 0.00 | 0.00 | 0.00 | 47 | 1016.7 |
| 20260502162337 | 45 | 309 | 3.5 | 9.6 | 0.00 | 0.00 | 0.00 | 50 | 1016.7 |
| 20260502161830 | 45 | 238 | 4.3 | 9.6 | 0.00 | 0.00 | 0.00 | 49 | 1016.7 |
| 20260502161324 | 46 | 241 | 4.3 | 9.6 | 0.00 | 0.00 | 0.00 | 49 | 1016.7 |
| 20260502160824 | 46 | 290 | 4.3 | 9.6 | 0.00 | 0.00 | 0.00 | 48 | 1016.8 |
| 20260502160324 | 46 | 321 | 4.3 | 9.6 | 0.00 | 0.00 | 0.00 | 49 | 1016.7 |
| 20260502152320 | 47 | 263 | 3.5 | 7.0 | 0.00 | 0.00 | 0.00 | 48 | 1016.6 |
| 20260502152040 | 46 | 220 | 3.5 | 7.0 | 0.00 | 0.00 | 0.00 | 51 | 1016.6 |
| 20260502151320 | 45 | 39 | 3.5 | 11.3 | 0.00 | 0.00 | 0.00 | 51 | 1016.7 |
| 20260502150818 | 44 | 288 | 3.5 | 11.3 | 0.00 | 0.00 | 0.00 | 50 | 1016.7 |
| 20260502150809 | 44 | 73 | 3.5 | 7.0 | 0.00 | 0.00 | 0.00 | 52 | 1016.6 |
| 20260502130744 | 42 | 347 | 2.6 | 7.8 | 0.00 | 0.00 | 0.00 | 65 | 1016.8 |
| 20260502130238 | 42 | 355 | 2.6 | 7.0 | 0.00 | 0.00 | 0.00 | 66 | 1016.8 |
| 20260502123723 | 41 | 252 | 2.6 | 7.8 | 0.00 | 0.00 | 0.00 | 69 | 1016.6 |
| 20260502123222 | 40 | 326 | 2.6 | 5.2 | 0.00 | 0.00 | 0.00 | 69 | 1016.6 |
| 20260502122722 | 40 | 330 | 2.6 | 6.1 | 0.00 | 0.00 | 0.00 | 70 | 1016.6 |
| 20260502122222 | 40 | 298 | 2.6 | 6.1 | 0.00 | 0.00 | 0.00 | 71 | 1016.6 |
| 20260502121720 | 39 | 300 | 2.6 | 6.1 | 0.00 | 0.00 | 0.00 | 71 | 1016.6 |
| 20260502121221 | 39 | 309 | 1.7 | 6.1 | 0.00 | 0.00 | 0.00 | 72 | 1016.7 |
| 20260502120721 | 39 | 36 | 1.7 | 4.3 | 0.00 | 0.00 | 0.00 | 73 | 1016.6 |
| 20260502120222 | 38 | 304 | 2.6 | 7.0 | 0.00 | 0.00 | 0.00 | 73 | 1016.5 |
| 20260502115723 | 38 | 244 | 2.6 | 7.0 | 0.00 | 0.00 | 0.00 | 74 | 1016.5 |
| 20260502115216 | 38 | 30 | 3.5 | 6.1 | 0.00 | 0.00 | 0.00 | 75 | 1016.5 |
| 20260502114705 | 37 | 302 | 1.7 | 6.1 | 0.00 | 0.00 | 0.00 | 75 | 1016.5 |
| 20260502114204 | 37 | 312 | 1.7 | 7.0 | 0.00 | 0.00 | 0.00 | 77 | 1016.5 |
| 20260502113706 | 37 | 40 | 1.7 | 7.0 | 0.00 | 0.00 | 0.00 | 77 | 1016.4 |
| 20260502113205 | 36 | 11 | 1.7 | 6.1 | 0.00 | 0.00 | 0.00 | 79 | 1016.3 |
| 20260502112704 | 36 | 337 | 0.9 | 6.1 | 0.00 | 0.00 | 0.00 | 80 | 1016.3 |
| 20260502112204 | 35 | 292 | 0.9 | 4.3 | 0.00 | 0.00 | 0.00 | 80 | 1016.3 |
| 20260502111704 | 35 | 305 | 0.9 | 4.3 | 0.00 | 0.00 | 0.00 | 81 | 1016.3 |
| 20260502111204 | 35 | 278 | 0.9 | 2.6 | 0.00 | 0.00 | 0.00 | 82 | 1016.2 |
| 20260502110705 | 34 | 347 | 0.9 | 4.3 | 0.00 | 0.00 | 0.00 | 83 | 1016.1 |
| 20260502110159 | 34 | 336 | 0.9 | 4.3 | 0.00 | 0.00 | 0.00 | 83 | 1016.1 |
| 20260502105648 | 34 | 325 | 0.9 | 3.5 | 0.00 | 0.00 | 0.00 | 84 | 1016.1 |
| 20260502105148 | 34 | 312 | 0.9 | 2.6 | 0.00 | 0.00 | 0.00 | 84 | 1016.1 |
| 20260502104649 | 34 | 312 | 0.9 | 2.6 | 0.00 | 0.00 | 0.00 | 85 | 1016.0 |
| 20260502104148 | 34 | 308 | 0.9 | 3.5 | 0.00 | 0.00 | 0.00 | 85 | 1016.0 |
| 20260502103648 | 34 | 268 | 0.9 | 3.5 | 0.00 | 0.00 | 0.00 | 86 | 1016.0 |
| 20260502103151 | 34 | 290 | 0.9 | 2.6 | 0.00 | 0.00 | 0.00 | 87 | 1016.1 |
| 20260502102651 | 34 | 320 | 0.9 | 2.6 | 0.00 | 0.00 | 0.00 | 87 | 1016.0 |
| 20260502102148 | 34 | 288 | 0.9 | 2.6 | 0.00 | 0.00 | 0.00 | 87 | 1016.0 |
| 20260502101648 | 34 | 310 | 0.9 | 2.6 | 0.00 | 0.00 | 0.00 | 87 | 1015.8 |
| 20260502101142 | 35 | 262 | 0.9 | 2.6 | 0.00 | 0.00 | 0.00 | 88 | 1016.0 |
| 20260502100632 | 35 | 286 | 0.9 | 2.6 | 0.00 | 0.00 | 0.00 | 88 | 1015.8 |
| 20260502100624 | 35 | 298 | 0.9 | 3.5 | 0.00 | 0.00 | 0.00 | 88 | 1015.8 |
| 20260502091341 | 37 | 28 | 0.0 | 2.6 | 0.00 | 0.00 | 0.00 | 85 | 1015.6 |
| 20260502090616 | 37 | 76 | 0.0 | 1.7 | 0.00 | 0.00 | 0.00 | 85 | 1015.5 |
| 20260502090116 | 37 | 76 | 0.9 | 1.7 | 0.00 | 0.00 | 0.00 | 85 | 1015.5 |
| 20260502071044 | 39 | 55 | 0.0 | 0.9 | 0.00 | 0.00 | 0.00 | 82 | 1015.1 |
| 20260502070544 | 39 | 55 | 0.0 | 1.7 | 0.00 | 0.00 | 0.00 | 82 | 1015.2 |
| 20260502070044 | 39 | 55 | 0.0 | 1.7 | 0.00 | 0.00 | 0.00 | 81 | 1015.2 |
| 20260502065544 | 39 | 55 | 0.0 | 0.9 | 0.00 | 0.00 | 0.00 | 81 | 1015.2 |
| 20260502065038 | 39 | 55 | 0.9 | 2.6 | 0.00 | 0.00 | 0.00 | 81 | 1015.3 |
| 20260502064528 | 39 | 55 | 0.9 | 2.6 | 0.00 | 0.00 | 0.00 | 81 | 1015.3 |
| 20260502064245 | 39 | 63 | 0.9 | 2.6 | 0.00 | 0.00 | 0.00 | 81 | 1015.4 |
| 20260502063527 | 39 | 63 | 1.7 | 2.6 | 0.00 | 0.00 | 0.00 | 80 | 1015.4 |
| 20260502063028 | 39 | 63 | 1.7 | 2.6 | 0.00 | 0.00 | 0.00 | 80 | 1015.4 |
| 20260502062528 | 39 | 40 | 1.7 | 3.5 | 0.00 | 0.00 | 0.00 | 80 | 1015.4 |
| 20260502062028 | 39 | 32 | 1.7 | 3.5 | 0.00 | 0.00 | 0.00 | 80 | 1015.5 |
| 20260502061748 | 39 | 68 | 1.7 | 4.3 | 0.00 | 0.00 | 0.00 | 80 | 1015.6 |
| 20260502061248 | 39 | 89 | 1.7 | 4.3 | 0.00 | 0.00 | 0.00 | 80 | 1015.5 |
| 20260502060530 | 40 | 51 | 1.7 | 3.5 | 0.00 | 0.00 | 0.00 | 80 | 1015.6 |
| 20260502060249 | 40 | 57 | 1.7 | 3.5 | 0.00 | 0.00 | 0.00 | 79 | 1015.6 |
| 20260502055746 | 40 | 75 | 1.7 | 4.3 | 0.00 | 0.00 | 0.00 | 79 | 1015.6 |
| 20260502055018 | 40 | 72 | 1.7 | 4.3 | 0.00 | 0.00 | 0.00 | 79 | 1015.6 |
| 20260502054738 | 40 | 53 | 1.7 | 4.3 | 0.00 | 0.00 | 0.00 | 78 | 1015.7 |
| 20260502054016 | 40 | 59 | 1.7 | 6.1 | 0.00 | 0.00 | 0.00 | 78 | 1015.7 |
| 20260502053514 | 40 | 97 | 2.6 | 6.1 | 0.00 | 0.00 | 0.00 | 78 | 1015.6 |
| 20260502053011 | 40 | 55 | 2.6 | 4.3 | 0.00 | 0.00 | 0.00 | 78 | 1015.6 |
| 20260502052512 | 40 | 40 | 1.7 | 4.3 | 0.00 | 0.00 | 0.00 | 77 | 1015.7 |
| 20260502052010 | 40 | 66 | 1.7 | 4.3 | 0.00 | 0.00 | 0.00 | 77 | 1015.7 |
| 20260502051510 | 40 | 75 | 2.6 | 7.0 | 0.00 | 0.00 | 0.00 | 76 | 1015.7 |
| 20260502051238 | 40 | 83 | 3.5 | 7.8 | 0.00 | 0.00 | 0.00 | 76 | 1015.7 |
| 20260502050510 | 40 | 76 | 3.5 | 7.8 | 0.00 | 0.00 | 0.00 | 76 | 1015.6 |